| time (UTC) | temp F | wind direction | speed MPH | gust MPH | rain 1hr in | rain 24hr in | rain mn in | humidity % | barometer mb |
| 20260505223042 | 82 | 195 | 0.0 | 0.0 | 0.00 | 0.00 | 0.01 | 20 | 1006.9 |
| 20260505221547 | 83 | 4 | 4.0 | 12.0 | 0.00 | 0.00 | 0.00 | 27 | 1008.2 |
| 20260505221539 | 82 | 193 | 0.0 | 0.0 | 0.00 | 0.00 | 0.01 | 20 | 1007.0 |
| 20260505220038 | 83 | 186 | 2.0 | 8.0 | 0.00 | 0.00 | 0.00 | 27 | 1008.0 |
| 20260505220035 | 83 | 224 | 0.0 | 0.0 | 0.00 | 0.00 | 0.01 | 20 | 1006.8 |
| 20260505214542 | 84 | 43 | 4.0 | 13.0 | 0.00 | 0.00 | 0.00 | 28 | 1007.8 |
| 20260505214540 | 83 | 208 | 0.0 | 0.0 | 0.00 | 0.00 | 0.01 | 21 | 1006.5 |
| 20260505213036 | 84 | 339 | 3.0 | 11.0 | 0.00 | 0.00 | 0.00 | 29 | 1007.8 |
| 20260505213034 | 83 | 212 | 0.0 | 0.0 | 0.00 | 0.00 | 0.01 | 22 | 1006.5 |
| 20260505211559 | 84 | 136 | 4.0 | 12.0 | 0.00 | 0.00 | 0.00 | 28 | 1007.6 |
| 20260505211533 | 84 | 203 | 0.0 | 0.0 | 0.00 | 0.00 | 0.01 | 21 | 1006.3 |
| 20260505210040 | 84 | 313 | 4.0 | 11.0 | 0.00 | 0.00 | 0.00 | 28 | 1007.8 |
| 20260505210033 | 84 | 241 | 0.0 | 0.0 | 0.00 | 0.00 | 0.01 | 22 | 1006.3 |
| 20260505204534 | 85 | 349 | 3.0 | 8.0 | 0.00 | 0.00 | 0.00 | 29 | 1007.7 |
| 20260505204531 | 84 | 224 | 0.0 | 0.0 | 0.00 | 0.00 | 0.01 | 22 | 1006.3 |
| 20260505203030 | 85 | 1 | 5.0 | 16.0 | 0.00 | 0.00 | 0.00 | 29 | 1007.6 |
| 20260505201531 | 85 | 345 | 2.0 | 9.0 | 0.00 | 0.00 | 0.00 | 29 | 1007.6 |
| 20260505200034 | 84 | 143 | 0.0 | 0.0 | 0.00 | 0.00 | 0.01 | 22 | 1006.5 |
| 20260505200028 | 86 | 208 | 4.0 | 13.0 | 0.00 | 0.00 | 0.00 | 29 | 1007.8 |
| 20260505194528 | 85 | 233 | 0.0 | 0.0 | 0.00 | 0.00 | 0.01 | 22 | 1006.5 |
| 20260505194526 | 87 | 333 | 5.0 | 8.0 | 0.00 | 0.00 | 0.00 | 28 | 1007.9 |
| 20260505193027 | 84 | 185 | 0.0 | 0.0 | 0.00 | 0.00 | 0.01 | 23 | 1006.9 |
| 20260505193023 | 86 | 63 | 2.0 | 9.0 | 0.00 | 0.00 | 0.00 | 30 | 1008.3 |
| 20260505191525 | 84 | 191 | 0.0 | 0.0 | 0.00 | 0.00 | 0.01 | 21 | 1007.2 |
| 20260505190024 | 84 | 131 | 0.0 | 0.0 | 0.00 | 0.00 | 0.01 | 23 | 1007.4 |
| 20260505190019 | 86 | 85 | 3.0 | 8.0 | 0.00 | 0.00 | 0.00 | 30 | 1008.7 |
| 20260505184527 | 85 | 194 | 0.0 | 0.0 | 0.00 | 0.00 | 0.01 | 24 | 1007.6 |
| 20260505184517 | 86 | 338 | 3.0 | 8.0 | 0.00 | 0.00 | 0.00 | 31 | 1009.2 |
| 20260505183038 | 84 | 244 | 0.0 | 0.0 | 0.00 | 0.00 | 0.01 | 26 | 1007.6 |
| 20260505183015 | 86 | 65 | 2.0 | 12.0 | 0.00 | 0.00 | 0.00 | 33 | 1009.1 |
| 20260505181520 | 85 | 231 | 0.0 | 0.0 | 0.00 | 0.00 | 0.01 | 25 | 1007.9 |
| 20260505181512 | 86 | 5 | 4.0 | 9.0 | 0.00 | 0.00 | 0.00 | 32 | 1009.3 |
| 20260505180019 | 85 | 215 | 0.0 | 0.0 | 0.00 | 0.00 | 0.01 | 25 | 1007.8 |
| 20260505180010 | 86 | 63 | 3.0 | 8.0 | 0.00 | 0.00 | 0.00 | 32 | 1009.5 |
| 20260505174517 | 85 | 170 | 0.0 | 0.0 | 0.00 | 0.00 | 0.01 | 27 | 1008.0 |
| 20260505174507 | 87 | 62 | 1.0 | 6.0 | 0.00 | 0.00 | 0.00 | 35 | 1009.5 |
| 20260505173020 | 84 | 168 | 0.0 | 0.0 | 0.00 | 0.00 | 0.01 | 27 | 1008.1 |
| 20260505173004 | 86 | 90 | 1.0 | 6.0 | 0.00 | 0.00 | 0.00 | 35 | 1009.7 |
| 20260505171605 | 85 | 79 | 2.0 | 5.0 | 0.00 | 0.00 | 0.00 | 37 | 1009.8 |
| 20260505171511 | 83 | 149 | 0.0 | 0.0 | 0.00 | 0.00 | 0.01 | 28 | 1008.2 |
| 20260505170057 | 84 | 88 | 1.0 | 5.0 | 0.00 | 0.00 | 0.00 | 37 | 1009.9 |
| 20260505170011 | 82 | 226 | 0.0 | 0.0 | 0.00 | 0.00 | 0.01 | 27 | 1008.2 |
| 20260505164554 | 83 | 120 | 2.0 | 8.0 | 0.00 | 0.00 | 0.00 | 38 | 1010.2 |
| 20260505164507 | 82 | 210 | 0.0 | 0.0 | 0.00 | 0.00 | 0.01 | 29 | 1008.5 |
| 20260505163053 | 84 | 117 | 1.0 | 3.0 | 0.00 | 0.00 | 0.00 | 38 | 1010.4 |
| 20260505163007 | 82 | 204 | 0.0 | 0.0 | 0.00 | 0.00 | 0.01 | 29 | 1008.6 |
| 20260505161551 | 83 | 68 | 0.0 | 4.0 | 0.00 | 0.00 | 0.00 | 39 | 1010.5 |
| 20260505161504 | 81 | 207 | 0.0 | 0.0 | 0.00 | 0.00 | 0.01 | 30 | 1008.8 |
| 20260505153057 | 78 | 211 | 0.0 | 0.0 | 0.00 | 0.00 | 0.01 | 35 | 1009.2 |
| 20260505153043 | 79 | 358 | 0.0 | 4.0 | 0.00 | 0.00 | 0.00 | 44 | 1011.0 |
| 20260505151553 | 77 | 197 | 0.0 | 0.0 | 0.00 | 0.00 | 0.01 | 36 | 1009.4 |
| 20260505151535 | 78 | 33 | 1.0 | 5.0 | 0.00 | 0.00 | 0.00 | 45 | 1011.2 |
| 20260505124521 | 67 | 203 | 0.0 | 0.0 | 0.00 | 0.00 | 0.01 | 50 | 1009.6 |
| 20260505124502 | 68 | 66 | 3.0 | 7.0 | 0.00 | 0.00 | 0.00 | 58 | 1011.4 |
| 20260505123104 | 67 | 59 | 2.0 | 5.0 | 0.00 | 0.00 | 0.00 | 61 | 1011.4 |
| 20260505123016 | 65 | 249 | 0.0 | 0.0 | 0.00 | 0.00 | 0.01 | 54 | 1009.5 |
| 20260505121556 | 65 | 60 | 0.0 | 4.0 | 0.00 | 0.00 | 0.00 | 64 | 1011.5 |
| 20260505121512 | 64 | 175 | 0.0 | 0.0 | 0.00 | 0.00 | 0.01 | 57 | 1009.6 |
| 20260505120109 | 64 | 65 | 0.0 | 3.0 | 0.00 | 0.00 | 0.00 | 66 | 1011.5 |
| 20260505120007 | 62 | 192 | 0.0 | 0.0 | 0.00 | 0.00 | 0.01 | 60 | 1009.6 |
| 20260505114547 | 62 | 63 | 0.0 | 2.0 | 0.00 | 0.00 | 0.00 | 69 | 1011.6 |
| 20260505114503 | 61 | 236 | 0.0 | 0.0 | 0.00 | 0.00 | 0.01 | 64 | 1009.7 |
| 20260505113059 | 60 | 162 | 0.0 | 0.0 | 0.00 | 0.00 | 0.01 | 67 | 1009.8 |
| 20260505113045 | 61 | 82 | 0.0 | 0.0 | 0.00 | 0.00 | 0.00 | 72 | 1011.7 |
| 20260505111554 | 59 | 190 | 0.0 | 0.0 | 0.00 | 0.00 | 0.01 | 69 | 1010.0 |
| 20260505111541 | 59 | 84 | 0.0 | 0.0 | 0.00 | 0.00 | 0.00 | 74 | 1011.9 |
| 20260505110104 | 59 | 84 | 0.0 | 0.0 | 0.00 | 0.00 | 0.00 | 75 | 1011.6 |
| 20260505101545 | 57 | 214 | 0.0 | 0.0 | 0.00 | 0.00 | 0.01 | 71 | 1009.6 |
| 20260505101537 | 57 | 94 | 0.0 | 0.0 | 0.00 | 0.00 | 0.00 | 77 | 1011.4 |
| 20260505100046 | 56 | 192 | 0.0 | 0.0 | 0.00 | 0.00 | 0.01 | 71 | 1009.7 |
| 20260505100037 | 56 | 89 | 0.0 | 0.0 | 0.00 | 0.00 | 0.00 | 78 | 1011.5 |
| 20260505094542 | 57 | 171 | 0.0 | 0.0 | 0.00 | 0.00 | 0.01 | 70 | 1009.0 |
| 20260505094535 | 56 | 86 | 0.0 | 0.0 | 0.00 | 0.00 | 0.00 | 77 | 1010.8 |
| 20260505093041 | 57 | 160 | 0.0 | 0.0 | 0.00 | 0.00 | 0.01 | 69 | 1008.7 |
| 20260505093034 | 56 | 86 | 0.0 | 0.0 | 0.00 | 0.00 | 0.00 | 77 | 1010.7 |
| 20260505091540 | 57 | 181 | 0.0 | 0.0 | 0.00 | 0.00 | 0.01 | 69 | 1008.9 |
| 20260505091531 | 56 | 75 | 0.0 | 0.0 | 0.00 | 0.00 | 0.00 | 76 | 1010.8 |
| 20260505090041 | 57 | 214 | 0.0 | 0.0 | 0.00 | 0.00 | 0.01 | 68 | 1008.9 |
| 20260505090035 | 56 | 79 | 0.0 | 0.0 | 0.00 | 0.00 | 0.00 | 76 | 1010.7 |
| 20260505084545 | 57 | 216 | 0.0 | 0.0 | 0.00 | 0.00 | 0.01 | 67 | 1008.8 |
| 20260505084534 | 56 | 79 | 0.0 | 0.0 | 0.00 | 0.00 | 0.00 | 76 | 1010.6 |
| 20260505083037 | 57 | 169 | 0.0 | 0.0 | 0.00 | 0.00 | 0.01 | 66 | 1009.1 |
| 20260505083030 | 57 | 91 | 0.0 | 0.0 | 0.00 | 0.00 | 0.00 | 75 | 1010.9 |
| 20260505081537 | 57 | 167 | 0.0 | 0.0 | 0.00 | 0.00 | 0.01 | 65 | 1008.8 |
| 20260505081526 | 57 | 94 | 0.0 | 0.0 | 0.00 | 0.00 | 0.00 | 74 | 1010.6 |
| 20260505080037 | 57 | 199 | 0.0 | 0.0 | 0.00 | 0.00 | 0.01 | 64 | 1008.7 |
| 20260505080028 | 57 | 80 | 0.0 | 0.0 | 0.00 | 0.00 | 0.00 | 73 | 1010.6 |
| 20260505074536 | 58 | 151 | 0.0 | 0.0 | 0.00 | 0.00 | 0.01 | 63 | 1008.9 |
| 20260505074523 | 57 | 80 | 0.0 | 0.0 | 0.00 | 0.00 | 0.00 | 72 | 1010.7 |
| 20260505073041 | 58 | 214 | 0.0 | 0.0 | 0.00 | 0.00 | 0.01 | 62 | 1008.8 |
| 20260505073023 | 58 | 81 | 0.0 | 0.0 | 0.00 | 0.00 | 0.00 | 71 | 1010.7 |
| 20260505071530 | 58 | 215 | 0.0 | 0.0 | 0.00 | 0.00 | 0.01 | 62 | 1008.9 |
| 20260505071522 | 58 | 82 | 0.0 | 0.0 | 0.00 | 0.00 | 0.00 | 70 | 1010.7 |
| 20260505070037 | 58 | 204 | 0.0 | 0.0 | 0.00 | 0.00 | 0.01 | 62 | 1008.9 |
| 20260505070022 | 58 | 81 | 0.0 | 0.0 | 0.00 | 0.00 | 0.00 | 70 | 1010.7 |
| 20260505064531 | 58 | 82 | 0.0 | 0.0 | 0.00 | 0.00 | 0.00 | 69 | 1010.6 |
| 20260505064526 | 58 | 191 | 0.0 | 0.0 | 0.00 | 0.00 | 0.01 | 62 | 1008.8 |
| 20260505063025 | 58 | 167 | 0.0 | 0.0 | 0.00 | 0.00 | 0.01 | 61 | 1008.8 |
| 20260505063020 | 58 | 82 | 0.0 | 0.0 | 0.00 | 0.00 | 0.00 | 69 | 1010.6 |
| 20260505061534 | 58 | 203 | 0.0 | 0.0 | 0.00 | 0.00 | 0.01 | 62 | 1009.0 |
| 20260505061518 | 58 | 82 | 0.0 | 0.0 | 0.00 | 0.00 | 0.00 | 70 | 1010.8 |
| 20260505060022 | 58 | 159 | 0.0 | 0.0 | 0.00 | 0.00 | 0.01 | 61 | 1009.1 |
| 20260505060017 | 57 | 82 | 0.0 | 0.0 | 0.00 | 0.00 | 0.00 | 70 | 1010.8 |
| 20260505054525 | 58 | 165 | 0.0 | 0.0 | 0.00 | 0.00 | 0.01 | 60 | 1009.1 |
| 20260505054523 | 58 | 82 | 0.0 | 0.0 | 0.00 | 0.00 | 0.00 | 68 | 1010.9 |
| 20260505053017 | 58 | 169 | 0.0 | 0.0 | 0.00 | 0.00 | 0.01 | 58 | 1009.1 |
| 20260505053010 | 58 | 82 | 0.0 | 0.0 | 0.00 | 0.00 | 0.00 | 67 | 1010.9 |
| 20260505051517 | 59 | 173 | 0.0 | 0.0 | 0.00 | 0.00 | 0.01 | 57 | 1009.2 |
| 20260505051509 | 59 | 82 | 0.0 | 0.0 | 0.00 | 0.00 | 0.00 | 66 | 1011.0 |
| 20260505041608 | 60 | 104 | 0.0 | 2.0 | 0.00 | 0.00 | 0.00 | 62 | 1011.2 |
| 20260505041559 | 60 | 158 | 0.0 | 0.0 | 0.00 | 0.00 | 0.00 | 54 | 1009.6 |
| 20260505040103 | 60 | 89 | 0.0 | 0.0 | 0.00 | 0.00 | 0.00 | 61 | 1011.3 |
| 20260505040054 | 60 | 164 | 0.0 | 0.0 | 0.00 | 0.00 | 0.00 | 52 | 1009.6 |
| 20260505034610 | 61 | 84 | 0.0 | 0.0 | 0.00 | 0.00 | 0.00 | 60 | 1011.3 |
| 20260505034550 | 61 | 162 | 0.0 | 0.0 | 0.00 | 0.00 | 0.00 | 51 | 1009.6 |
| 20260505033056 | 61 | 84 | 0.0 | 3.0 | 0.00 | 0.00 | 0.00 | 58 | 1011.4 |
| 20260505033050 | 62 | 152 | 0.0 | 0.0 | 0.00 | 0.00 | 0.00 | 50 | 1009.7 |
| 20260505031600 | 62 | 161 | 0.0 | 0.0 | 0.00 | 0.00 | 0.00 | 48 | 1009.7 |
| 20260505031554 | 62 | 67 | 0.0 | 2.0 | 0.00 | 0.00 | 0.00 | 57 | 1011.4 |
| 20260505030049 | 63 | 162 | 0.0 | 0.0 | 0.00 | 0.00 | 0.00 | 47 | 1009.9 |
| 20260505024608 | 63 | 84 | 0.0 | 1.0 | 0.00 | 0.00 | 0.00 | 54 | 1011.5 |
| 20260505024557 | 63 | 161 | 0.0 | 0.0 | 0.00 | 0.00 | 0.00 | 45 | 1009.9 |
| 20260505023053 | 63 | 91 | 0.0 | 2.0 | 0.00 | 0.00 | 0.00 | 53 | 1011.5 |
| 20260505023048 | 64 | 153 | 0.0 | 0.0 | 0.00 | 0.00 | 0.00 | 45 | 1010.0 |
| 20260505021553 | 64 | 72 | 0.0 | 3.0 | 0.00 | 0.00 | 0.00 | 52 | 1011.6 |
| 20260505020105 | 64 | 97 | 0.0 | 6.0 | 0.00 | 0.00 | 0.00 | 51 | 1011.5 |
| 20260505020047 | 65 | 184 | 0.0 | 0.0 | 0.00 | 0.00 | 0.00 | 42 | 1010.0 |
| 20260505014603 | 65 | 158 | 0.0 | 0.0 | 0.00 | 0.00 | 0.00 | 41 | 1009.9 |
| 20260505014552 | 65 | 91 | 0.0 | 2.0 | 0.00 | 0.00 | 0.00 | 50 | 1011.4 |
| 20260505013051 | 66 | 74 | 0.0 | 0.0 | 0.00 | 0.00 | 0.00 | 47 | 1011.4 |
| 20260505013042 | 66 | 191 | 0.0 | 0.0 | 0.00 | 0.00 | 0.00 | 38 | 1009.9 |
| 20260505011550 | 68 | 141 | 0.0 | 0.0 | 0.00 | 0.00 | 0.00 | 31 | 1009.6 |
| 20260505010106 | 68 | 73 | 0.0 | 1.0 | 0.00 | 0.00 | 0.00 | 39 | 1010.8 |
| 20260505010040 | 68 | 219 | 0.0 | 0.0 | 0.00 | 0.00 | 0.00 | 30 | 1009.3 |
| 20260505004601 | 68 | 77 | 0.0 | 2.0 | 0.00 | 0.00 | 0.00 | 39 | 1010.6 |
| 20260505004542 | 68 | 182 | 0.0 | 0.0 | 0.00 | 0.00 | 0.00 | 29 | 1009.1 |
| 20260505003052 | 69 | 115 | 0.0 | 2.0 | 0.00 | 0.00 | 0.00 | 37 | 1010.5 |
| 20260505003040 | 69 | 173 | 0.0 | 0.0 | 0.00 | 0.00 | 0.00 | 28 | 1009.0 |
| 20260505001547 | 69 | 79 | 1.0 | 4.0 | 0.00 | 0.00 | 0.00 | 37 | 1010.3 |
| 20260505001539 | 69 | 239 | 0.0 | 0.0 | 0.00 | 0.00 | 0.00 | 27 | 1008.7 |
| 20260505000050 | 70 | 230 | 0.0 | 0.0 | 0.00 | 0.00 | 0.00 | 28 | 1008.6 |
| 20260505000047 | 70 | 82 | 0.0 | 4.0 | 0.00 | 0.00 | 0.00 | 37 | 1010.0 |
| 20260504234547 | 70 | 117 | 0.0 | 2.0 | 0.00 | 0.00 | 0.00 | 36 | 1009.8 |
| 20260504233055 | 71 | 235 | 0.0 | 0.0 | 0.00 | 0.00 | 0.00 | 27 | 1008.1 |
| 20260504233048 | 71 | 83 | 0.0 | 4.0 | 0.00 | 0.00 | 0.00 | 35 | 1009.6 |
| 20260504231617 | 71 | 67 | 1.0 | 7.0 | 0.00 | 0.00 | 0.00 | 35 | 1009.4 |
| 20260504231538 | 71 | 191 | 0.0 | 0.0 | 0.00 | 0.00 | 0.00 | 26 | 1008.0 |
| 20260504230045 | 72 | 63 | 3.0 | 6.0 | 0.00 | 0.00 | 0.00 | 34 | 1009.3 |
| 20260504230038 | 71 | 201 | 0.0 | 0.0 | 0.00 | 0.00 | 0.00 | 26 | 1007.8 |
| 20260504224545 | 72 | 70 | 1.0 | 5.0 | 0.00 | 0.00 | 0.00 | 34 | 1009.2 |
| 20260504224539 | 72 | 231 | 0.0 | 0.0 | 0.00 | 0.00 | 0.00 | 26 | 1007.8 |